Location: Huntsville
(34.7300°N, 86.5860°W)
Time: 04:00:21
(UTC-05:00)

ISS - Visible Passes

Search period start: 15 October 2019 00:00
Search period end: 25 October 2019 00:00
Orbit: 411 x 421 km, 51.6° (Epoch: 15 October)

Date Brightness Start Highest point End Pass type
(mag) Time Alt. Az. Time Alt. Az. Time Alt. Az.
22 Oct -1.0 05:58:21 10° S 06:00:54 20° SE 06:03:27 10° E visible
23 Oct -0.5 05:11:43 10° SE 05:12:31 11° SE 05:13:20 10° ESE visible
24 Oct -3.5 05:57:00 10° SW 06:00:18 71° SE 06:03:39 10° NE visible
